Weather History for Sherman-Denison, TX

Change the Weather History Date:

Saturday, September 7, 2013

  Actual Average (KDFW) Record (KDFW)
Temperature  
Mean Temperature 88 °F 81 °F  
Max Temperature 99 °F 91 °F 104 °F (2012)
Min Temperature 78 °F 71 °F 56 °F (1918)
Degree Days  
Heating Degree Days 0 0  
Month to date heating degree days 0  
Since 1 July heating degree days 0  
Cooling Degree Days 24 16  
Month to date cooling degree days 119  
Year to date cooling degree days 2301  
Growing Degree Days 38 (Base 50)    
Moisture  
Dew Point 62 °F    
Average Humidity 41    
Maximum Humidity 62    
Minimum Humidity 28    
Precipitation  
Precipitation 0.00 in 0.09 in 1.44 in (1991)
Month to date precipitation 0.66  
Year to date precipitation 24.77  
Sea Level Pressure  
Sea Level Pressure 30.00 in    
Wind  
Wind Speed 8 mph (South)    
Max Wind Speed 15 mph    
Max Gust Speed 18 mph    
Visibility 10 miles    
Events      
T = Trace of Precipitation, MM = Missing Value Source: NWS Daily Summary

Daily Weather History Graph

Daily Weather History Graph

Search for Another Location

Airport:

Trip Planner

Search our weather history database for the weather conditions in past years. The results will help you decide how hot, cold, wet, or windy it might be!

Date:

Astronomy

Sep. 07, 2013 Rise Set
Actual Time 7:04 AM CDT 7:43 PM CDT
Civil Twilight 6:39 AM CDT 8:08 PM CDT
Nautical Twilight 6:09 AM CDT 8:38 PM CDT
Astronomical Twilight 5:39 AM CDT 9:08 PM CDT
Moon 9:11 AM CDT (9/7) 8:53 PM CDT (9/7)
Length of Visible Light 13h 29m
Length of Day
12h 38m
Waxing Crescent, 5% of the Moon is Illuminated
Sep 7
Waxing Crescent
Sep 12
First Quarter
Sep 19
Full
Sep 26
Last Quarter
Oct 4
New

Hourly Weather History & Observations

Time (CDT) Temp. Heat Index Dew Point Humidity Pressure Visibility Wind Dir Wind Speed Gust Speed Precip Events Conditions
12:15 AM 84.9 °F 84.6 °F 59.2 °F 42% 30.00 in 10.0 mi SE 5.8 mph - N/A   Clear
12:35 AM 85.3 °F 84.8 °F 59.2 °F 41% 30.00 in 10.0 mi SE 8.1 mph - N/A   Clear
12:55 AM 85.5 °F 85.0 °F 59.0 °F 41% 30.00 in 10.0 mi SE 9.2 mph - N/A   Clear
1:15 AM 85.3 °F 84.8 °F 59.2 °F 41% 30.00 in 10.0 mi SE 9.2 mph - N/A   Clear
1:35 AM 84.7 °F 84.4 °F 59.2 °F 42% 30.00 in 10.0 mi SE 9.2 mph - N/A   Clear
1:55 AM 84.2 °F 84.0 °F 59.2 °F 43% 30.00 in 10.0 mi SE 8.1 mph - N/A   Clear
2:15 AM 83.8 °F 83.6 °F 59.4 °F 43% 30.00 in 10.0 mi ESE 8.1 mph - N/A   Clear
2:35 AM 83.3 °F 83.2 °F 59.5 °F 44% 30.00 in 10.0 mi ESE 8.1 mph - N/A   Clear
2:55 AM 83.3 °F 83.2 °F 59.0 °F 44% 29.99 in 10.0 mi ESE 9.2 mph - N/A   Clear
3:15 AM 82.9 °F 82.8 °F 59.0 °F 44% 29.99 in 10.0 mi SE 9.2 mph - N/A   Clear
3:35 AM 82.4 °F 82.5 °F 59.2 °F 45% 29.99 in 10.0 mi SE 8.1 mph - N/A   Clear
3:55 AM 81.9 °F 82.2 °F 59.7 °F 47% 30.00 in 10.0 mi SE 8.1 mph - N/A   Scattered Clouds
4:15 AM 81.5 °F 82.0 °F 60.3 °F 48% 30.00 in 10.0 mi SE 6.9 mph - N/A   Scattered Clouds
4:35 AM 81.0 °F 81.7 °F 61.0 °F 50% 30.00 in 10.0 mi SE 6.9 mph - N/A   Scattered Clouds
4:55 AM 80.6 °F 81.6 °F 61.3 °F 52% 30.00 in 10.0 mi SSE 9.2 mph - N/A   Scattered Clouds
5:15 AM 80.6 °F 81.7 °F 61.9 °F 53% 30.00 in 10.0 mi SSE 5.8 mph - N/A   Scattered Clouds
5:35 AM 80.1 °F 81.4 °F 62.6 °F 55% 30.01 in 10.0 mi South 5.8 mph - N/A   Scattered Clouds
5:55 AM 79.7 °F - 62.8 °F 56% 30.01 in 10.0 mi South 5.8 mph - N/A   Scattered Clouds
6:15 AM 78.1 °F - 62.8 °F 59% 30.01 in 10.0 mi South 4.6 mph - N/A   Clear
6:35 AM 78.8 °F - 63.7 °F 60% 30.02 in 10.0 mi SSE 5.8 mph - N/A   Clear
6:55 AM 79.7 °F - 64.2 °F 59% 30.02 in 10.0 mi SSE 5.8 mph - N/A   Scattered Clouds
7:15 AM 79.9 °F - 64.4 °F 59% 30.02 in 10.0 mi South 5.8 mph - N/A   Scattered Clouds
7:35 AM 79.7 °F - 64.8 °F 60% 30.03 in 10.0 mi SSE 8.1 mph - N/A   Scattered Clouds
7:55 AM 79.5 °F - 65.3 °F 62% 30.03 in 10.0 mi SSE 5.8 mph - N/A   Scattered Clouds
8:15 AM 80.6 °F 82.5 °F 65.5 °F 60% 30.03 in 10.0 mi South 6.9 mph - N/A   Scattered Clouds
8:35 AM 81.5 °F 83.7 °F 66.2 °F 60% 30.04 in 10.0 mi South 8.1 mph - N/A   Clear
8:55 AM 83.3 °F 85.7 °F 66.6 °F 57% 30.04 in 10.0 mi South 5.8 mph - N/A   Scattered Clouds
9:15 AM 85.6 °F 88.5 °F 67.1 °F 54% 30.04 in 10.0 mi SSW 9.2 mph - N/A   Scattered Clouds
9:35 AM 88.5 °F 91.6 °F 67.1 °F 49% 30.04 in 10.0 mi SSW 10.4 mph - N/A   Clear
9:55 AM 89.2 °F 92.4 °F 66.9 °F 48% 30.05 in 10.0 mi SSW 11.5 mph - N/A   Clear
10:15 AM 90.1 °F 93.1 °F 66.7 °F 46% 30.05 in 10.0 mi South 10.4 mph - N/A   Clear
10:35 AM 91.6 °F 93.9 °F 65.5 °F 42% 30.05 in 10.0 mi SSW 10.4 mph - N/A   Clear
10:55 AM 93.0 °F 94.6 °F 64.2 °F 38% 30.06 in 10.0 mi SSW 9.2 mph - N/A   Clear
11:15 AM 93.4 °F 95.6 °F 64.9 °F 39% 30.06 in 10.0 mi SSW 8.1 mph - N/A   Clear
11:35 AM 94.3 °F 95.8 °F 63.9 °F 36% 30.06 in 10.0 mi South 10.4 mph - N/A   Clear
11:55 AM 95.7 °F 97.2 °F 63.0 °F 34% 30.05 in 10.0 mi SSW 12.7 mph 17.3 mph N/A   Clear
12:15 PM 96.6 °F 97.3 °F 61.5 °F 31% 30.05 in 10.0 mi SSW 11.5 mph 17.3 mph N/A   Clear
12:35 PM 96.8 °F 98.0 °F 62.1 °F 32% 30.04 in 10.0 mi SSW 15.0 mph 18.4 mph N/A   Scattered Clouds
12:55 PM 97.9 °F 98.8 °F 61.7 °F 30% 30.03 in 10.0 mi South 9.2 mph 17.3 mph N/A   Scattered Clouds
1:15 PM 97.3 °F 97.9 °F 61.2 °F 30% 30.02 in 10.0 mi South 8.1 mph - N/A   Scattered Clouds
1:35 PM 98.2 °F 98.9 °F 61.0 °F 29% 30.02 in 10.0 mi SW 10.4 mph - N/A   Clear
1:55 PM 96.1 °F 96.4 °F 60.6 °F 31% 30.01 in 10.0 mi SSW 8.1 mph 16.1 mph N/A   Scattered Clouds
2:15 PM 99.0 °F 99.5 °F 60.6 °F 28% 30.00 in 10.0 mi South 12.7 mph - N/A   Scattered Clouds
2:35 PM 97.5 °F 98.2 °F 60.8 °F 30% 29.99 in 10.0 mi SSE 10.4 mph - N/A   Clear
2:55 PM 94.6 °F 94.3 °F 60.1 °F 31% 29.99 in 10.0 mi SSE 11.5 mph - N/A   Clear
3:15 PM 95.2 °F 94.7 °F 59.5 °F 30% 29.98 in 10.0 mi South 10.4 mph - N/A   Clear
3:35 PM 94.1 °F 94.2 °F 61.2 °F 33% 29.98 in 10.0 mi SSW 11.5 mph - N/A   Clear
3:55 PM 95.5 °F 96.0 °F 61.5 °F 32% 29.97 in 10.0 mi WSW 4.6 mph - N/A   Clear
4:15 PM 97.2 °F 98.1 °F 61.5 °F 31% 29.95 in 10.0 mi SSW 4.6 mph - N/A   Clear
4:35 PM 97.2 °F 97.6 °F 60.8 °F 30% 29.95 in 10.0 mi SW 3.5 mph - N/A   Clear
4:55 PM 97.7 °F 98.0 °F 60.4 °F 29% 29.95 in 10.0 mi SW 3.5 mph - N/A   Clear
5:15 PM 97.7 °F 98.0 °F 60.8 °F 29% 29.94 in 10.0 mi Calm Calm - N/A   Clear
5:35 PM 98.2 °F 98.4 °F 60.3 °F 28% 29.94 in 10.0 mi SSE 3.5 mph - N/A   Clear
5:55 PM 97.3 °F 97.5 °F 60.1 °F 29% 29.94 in 10.0 mi WSW 6.9 mph - N/A   Clear
6:15 PM 96.8 °F 97.1 °F 60.3 °F 30% 29.94 in 10.0 mi South 4.6 mph - N/A   Clear
6:35 PM 96.8 °F 96.7 °F 59.9 °F 29% 29.94 in 10.0 mi South 3.5 mph - N/A   Clear
6:55 PM 95.9 °F 95.7 °F 59.9 °F 30% 29.94 in 10.0 mi Calm Calm - N/A   Clear
7:15 PM 94.5 °F 93.6 °F 58.6 °F 30% 29.94 in 10.0 mi SW 3.5 mph - N/A   Clear
7:35 PM 93.9 °F 92.9 °F 58.5 °F 30% 29.94 in 10.0 mi SSW 3.5 mph - N/A   Clear
7:55 PM 90.9 °F 90.3 °F 59.9 °F 35% 29.95 in 10.0 mi South 3.5 mph - N/A   Scattered Clouds
8:15 PM 90.7 °F 90.4 °F 60.3 °F 36% 29.95 in 10.0 mi SSE 4.6 mph - N/A   Scattered Clouds
8:35 PM 91.4 °F 91.0 °F 59.9 °F 35% 29.95 in 10.0 mi SSE 6.9 mph - N/A   Scattered Clouds
8:55 PM 91.2 °F 90.5 °F 59.2 °F 34% 29.96 in 10.0 mi SSE 8.1 mph - N/A   Scattered Clouds
9:15 PM 89.6 °F 89.2 °F 60.3 °F 37% 29.96 in 10.0 mi SSE 5.8 mph - N/A   Clear
9:35 PM 88.5 °F 88.3 °F 60.8 °F 39% 29.96 in 10.0 mi SSE 6.9 mph - N/A   Clear
9:55 PM 87.8 °F 87.4 °F 60.3 °F 39% 29.97 in 10.0 mi SSE 6.9 mph - N/A   Clear
10:15 PM 87.4 °F 87.2 °F 60.1 °F 40% 29.97 in 10.0 mi SE 4.6 mph - N/A   Clear
10:35 PM 87.1 °F 86.7 °F 60.3 °F 40% 29.97 in 10.0 mi SE 4.6 mph - N/A   Clear
10:55 PM 86.9 °F 86.5 °F 59.9 °F 40% 29.97 in 10.0 mi SSE 11.5 mph - N/A   Clear
11:15 PM 85.3 °F 85.4 °F 61.3 °F 44% 29.98 in 10.0 mi SSE 12.7 mph - N/A   Clear
11:35 PM 83.7 °F 84.5 °F 62.6 °F 49% 29.98 in 10.0 mi South 10.4 mph - N/A   Clear
11:55 PM 82.8 °F 84.0 °F 63.5 °F 52% 29.98 in 10.0 mi South 9.2 mph - N/A   Clear